Location: ??
(35.5052°N, 139.7262°E)
Time: 03:12:37
(UTC+00:00)

OAO 1 - Pass Details

Date: 20 June 2021
Orbit: 773 x 784 km, 35.0° (Epoch: 26 July)

Event Time Altitude Azimuth Distance (km) Brightness Sun altitude
Exits shadow 17:31:00 19° 274° (W) 1,786 6.1 -18.9°
Maximum altitude 17:35:00 76° 191° (S) 796 4.4 -18.3°
Drops below altitude 10° 17:40:28 10° 106° (ESE) 2,315 7.3 -17.6°
Sets 17:42:57 0° 104° (ESE) 3,244 8.1 -17.3°
